Погода в Смоленске

Погода в Смоленске : погода сейчас, прогноз погоды и архив. Всё, что Вы хотите узнать о погоде в Смоленске!

Хотите узнать прогноз погоды в Смоленске? Тогда Вам сюда: Погода в Смоленске

Поиск расширенной информации на нашем сайте:

Другие новости

Новости СМИ2

Главная страница сайта

Новости сайта

03.07.2017

Напоминаем, что на нашем специализированном сайте Метеоцентр.Азия вы можете получить высокодетализированные автоматические прогнозы погоды по пунктам России, СНГ и мира в авиационном формате (включающие направление и скорость ветра, видимость, явления погоды, количество и форму облачности, нижнюю и верхнюю границу облачности).

Рекомендуем: белый кот

Погода в Смоленске - сегодня

Время (UTC), дата Ветер
(°,м/с) 
Видим.   Явления Облачность Т
(°С)
Тd
(°С)
f(%) Тe
(°С)
Pmin
(гПа)
dP
(гПа)
Po
(мм)
O2
(г/м3)
Тmin Tmax R s Состояние
почвы
15 18.10.17 280 (З) 2{10}  10 км    10/10 300 м 
[Sc]
+13.1 +8 71 +14  1010  0.7  736  282      0.0     
18 18.10.17 270 (З) 10 км    10/10 600 м 
[Sc]
+11.6 +6 68 +12  1011.1  0.9  737  284    +14.8       
21 18.10.17 280 (З) 10 км    9/9 300 м 
[Sc]
+11.2 +6.6 73 +11  1011.6  0.9  737  284           
00 19.10.17 290 (З) 10 км    10/10 300 м 
[St]
+8.8 +7.3 90 +10  1013.7  1.7  739  287           
03 19.10.17 300 (СЗ) 4000 м  дымка  ясно 
+3.6 +2.4 92 +4  1016.2  1.9  740  294  +3.6         
06 19.10.17 300 (СЗ) 10 км    9/0 верхняя 
[Ci fib]
+5.9 +3.8 86 +7  1017.2  1.2  741  292  +2.4         
09 19.10.17 290 (З) 10 км    9/4 600 м верхняя 
[Cu hum|Ci fib]
+8.1 +3.8 74 +8  1018.3  1.5  742  290           
12 19.10.17 310 (СЗ) 10 км    9/4 1000 м верхняя 
[Cu med, cong|Ci fib]
+9 +2.1 62 +9  1018.6  0.1  742  289           
15 19.10.17 300 (СЗ) 10 км    8/5 600 м кучево-дожд., средняя 
[Cb cap|Ac cast]
+8 +1.5 63 +8  1019.4  0.6  743  290           
18 19.10.17 310 (СЗ) 10 км    9/0 средняя 
[Ac trans]
+7.1 +0.3 62 +7  1020.6  1.1  743  292    +10.5       
21 19.10.17 тихо ()   10 км    8/0 средняя 
[Ac trans]
+3.3 +1.1 85 +3  1021.8  0.8  744  296           
00 20.10.17 270 (З) 10 км    4/0 средняя 
[Ac trans]
+2.7 +0.8 87 +3  1022.3  0.4  744  297           
03 20.10.17 тихо ()   10 км    ясно 
+0.5 -0.1 96 +1  1023  0.5  745  300  +0.5         
06 20.10.17 тихо ()   4000 м  дымка  4/0 верхняя 
[Ci fib]
+2.9 +2.6 98 +3  1024  0.5  746  297  -1.4         
09 20.10.17 110 (В) 10 км    6/0 верхняя 
[Ci fib]
+8.3 +1.8 64 +9  1024  0.5  746  291           
12 20.10.17 310 (СЗ) 10 км    5/5 600 м 
[Sc]
+8.9 -1.6 48 +10  1023  -0.9  745  291           
15 20.10.17 тихо ()   10 км    10/10 600 м 
[Sc]
+6.8 +0.4 64 +7  1022.9  -0.3  745  293           
18 20.10.17 280 (З) 10 км  {дождь}  8/0 средняя 
[Ac trans]
+4.4 +3.1 91 +5  1023.2  0.1  745  295    +9.4  0.0     
21 20.10.17 050 (СВ) 10 км    8/0 средняя 
[Ac trans]
+3.2 +1.7 90 +4  1023.6  0.2  745  297           
00 21.10.17 тихо ()   10 км    4/0 верхняя 
[Ci fib]
+0.9 -0.3 92 +1  1023.2  -0.6  745  299           
03 21.10.17 тихо ()   4000 м  дымка  ясно 
-1.2 -1.6 97 -1  1023.1  -0.3  745  302  -1.2    0.0     
06 21.10.17 090 (В) 4000 м  дымка  1/0 средняя 
[Ac trans]
+2.1 +0.4 88 +3  1022.6  -0.2  745  298  -1.6         
09 21.10.17 130 (ЮВ) 20000 м    4/0 средняя, верхняя 
[Ac trans|Ci sp]
+6.1 -1 60 +7  1021.7  -0.4  744  293           
12 21.10.17 030 (СВ) 20000 м    6/6 1000 м 
[Sc]
+7.6 -3.5 45 +9  1019.8  -1.7  743  292           
15 21.10.17 050 (СВ) 10 км    1/1 1000 м 
[Sc]
+2.1 -0.4 84 +3  1020.4  743  297           
Время (UTC), дата Ветер
(°,м/с) 
Видим.   Явления Облачность Т
(°С)
Тd
(°С)
f(%) Тe
(°С)
Pmin
(гПа)
dP
(гПа)
Po
(мм)
O2
(г/м3)
Тmin Tmax R s Состояние
почвы

Для получения пояснительной информации подведите курсор к названию столбца.

ПОГОДА в Смоленске - архив

Всё, что Вы хотите узнать о погоде в Смоленске - удобно и подробно!

Выберите нужную дату (начиная с 1 января 2015* года) и нажмите кнопку "Найти".
Будут отображены архивные сводки погоды по пункту Смоленск, начиная с указанной даты.


Отображать данные в формате CSV (для использования в таблицах Excel)


Внимание! Наш архив погоды предназначен исключительно для личного некоммерческого использования в познавательных целях. Если Вам необходимы официальные справки о состоянии погоды (для производственных, юридических, коммерческих и т.п. целей), обращайтесь в органы Росгидромета.

*Примечание: данная дата относится к архиву по метеостанциям СССР (Россия, СНГ, Балтия).
Архив по метеостанциям Зарубежной Европы и Азии (кроме Китая) хранится 10 дней, по другим регионам земного шара (Китай, Африка, Америка, Австралия, Океания) - 1 день.

Смоленск - район местоположения метеостанции


Название, широта, долгота, высота метеостанции:
Смоленск 54.8°ш. 32.1°д. 239 м над ур. моря [Российская Федерация]

Дополнительная информация

В oтличие oт бoльшинства пoгoдных сайтoв мы публикуем пoдрoбную метеoинфoрмацию в детальнoм прoфессиoнальнoм фoрмате.

Характеристики температуры и влажнoсти вoздуха измеряются на высoте 2 м в тени вдали oт зданий и деревьев.
Скoрoсть ветра измеряется на высoте 10 м (на урoвне рoста челoвека скoрoсть ветра ниже в 1.5-2 раза). Если метеoстанция нахoдится в гoрoде или в лесу, тo скoрoсть ветра занижена на 2-4 м/с пo сравнению с oткрытым местoм. Скoрoсть ветра над акватoриями крупных рек и oзёр, а также на вершинах хoлмoв на 2-5 м/с выше, чем в oбычных услoвиях.
Атмoсфернoе давление в разных тoчках местнoсти мoжет значительнo oтличаться oт давления на метеoстанции, в зависимoсти oт услoвий рельефа (при пoдъёме на 10 м давление пoнижается примернo на 1 мм рт.ст.).